Regional Weather Roundup
Issued by NWS

Home | Current Version | Previous Version | Text Only | Print | Product List | Glossary Off
Versions: 1 2 3 4 5 6 7 8 9 10 11 12 13 14 15 16 17 18 19 20 21 22 23 24 25 26 27 28 29 30 31 32 33 34 35 36 37 38 39 40 41 42 43 44 45 46 47 48 49 50

000
ASUS43 KMKX 190511
RWRWI

WISCONSIN REGIONAL WEATHER ROUNDUP
NATIONAL WEATHER SERVICE MILWAUKEE/SULLIVAN WI
1200 AM CDT SAT AUG 19 2017

NOTE: "FAIR" INDICATES FEW OR NO CLOUDS BELOW 12,000 FEET WITH NO
SIGNIFICANT WEATHER AND/OR OBSTRUCTIONS TO VISIBILITY.

WIZ001-002-006>008-014>016-023>028-190600-
NORTHWEST WISCONSIN

CITY           SKY/WX    TMP DP  RH WIND       PRES   REMARKS
SUPERIOR ARPT    N/A     60  59  94 SW7       29.86S
ASHLAND        MOCLDY    63  61  93 SW9       29.86S
HAYWARD        FOG       56  55  97 S3        29.91R VSB 1/4
SIREN          FAIR      62  61  96 W5        29.91S
CUMBERLAND     FAIR      59  57  94 W5        29.93R FOG
RICE LAKE      FOG       59  58  98 CALM      29.94R VSB<1/4
CHETEK         MOCLDY    61  61 100 CALM      29.93R FOG
LADYSMITH      FAIR      62  61  96 CALM      29.93S FOG
EAU CLAIRE     FAIR      63  61  93 SW6       29.91S
MENOMONIE      FAIR      62  60  93 SW5       29.92S
NEW RICHMOND   FAIR      60  60  99 CALM      29.93R FOG
OSCEOLA        FAIR      58  58 100 CALM      29.95S
$$

WIZ003>005-009-010-017-018-190600-
NORTH CENTRAL WISCONSIN

CITY           SKY/WX    TMP DP  RH WIND       PRES   REMARKS
MANITOWISH WTR FOG       53  53 100 CALM      29.89S VSB 1
ARBOR VITAE    FAIR      59  58  96 CALM      29.90S
WOODRUFF       FAIR      59  58  96 CALM      29.90S
RHINELANDER    FAIR      56  56 100 W3        29.91S
EAGLE RIVER    FOG       52  52 100 CALM      29.90R VSB 3/4
LAND O LAKES   FAIR      52  52 100 CALM      29.91R FOG
PHILLIPS       FAIR      59  59 100 CALM      29.90S
TOMAHAWK         N/A     55  54  97 CALM      29.91S FOG
MEDFORD        CLOUDY    62  61  98 W5        29.92S FOG
MERRILL        FAIR      59  59 100 CALM      29.92R
$$

WIZ029-030-035-036-043>047-190600-
CENTRAL WISCONSIN

CITY           SKY/WX    TMP DP  RH WIND       PRES   REMARKS
WAUSAU         FAIR      62  60  93 NW6       29.90R
MOSINEE        FAIR      63  61  94 W8        29.93R
MARSHFIELD     FAIR      63  60  90 W6        29.92R FOG
STEVENS POINT  FAIR      62  62 100 CALM      29.92R
WAUPACA        FAIR      66  65  94 CALM      29.91R
WAUTOMA        FAIR      65  63  93 W6        29.92R
WISC RAPIDS    FAIR      64  64 100 W3        29.93R
CAMP DOUGLAS   FAIR      59  59 100 W6        29.93R
$$

WIZ011>013-019>022-031-037>040-048>050-190600-
NORTHEAST WISCONSIN

CITY           SKY/WX    TMP DP  RH WIND       PRES   REMARKS
ANTIGO         FAIR      56  56 100 W5        29.92R
SHAWANO        FAIR      63  60  91 CALM      29.89R
OCONTO         FAIR      58  57  95 CALM      29.87S
STURGEON BAY   MOCLDY    60  58  92 CALM      29.88R
GREEN BAY      FAIR      63  63 100 CALM      29.89R
MANITOWOC      FAIR      64  60  87 CALM      29.89R
APPLETON       FAIR      63  61  94 W7        29.89R
CLINTONVILLE   FAIR      63  59  88 W3        29.89S
OSHKOSH        FAIR      65  61  87 W6        29.89R
$$

WIZ032>034-041-042-053>061-190600-
SOUTHWEST WISCONSIN

CITY           SKY/WX    TMP DP  RH WIND       PRES   REMARKS
LA CROSSE      FAIR      64  62  93 SE3       29.93S
SPARTA         FAIR      55  55 100 CALM      29.94S
VIROQUA        FAIR      60  60 100 CALM      29.95S
BOSCOBEL       FOG       58  57  97 CALM      29.93S VSB 1
PRAIRIE DU CHI FAIR      58  57  94 CALM      29.93S
PLATTEVILLE    FAIR      58  58 100 N3        29.94S
$$

WIZ056-057-062-063-064-067-068-190600-
SOUTH CENTRAL WISCONSIN

CITY           SKY/WX    TMP DP  RH WIND       PRES   REMARKS
REEDSBURG      FAIR      62  62 100 CALM      29.93S
BARABOO/DELLS  FAIR      63  60  90 W3        29.94R
LONE ROCK      FAIR      61  60  97 CALM      29.92S
MINERAL POINT  FAIR      61  61 100 CALM      29.94S
MADISON        MOCLDY    64  61  90 NW5       29.92R
MIDDLETON      CLOUDY    64  64 100 W5        29.93R
WATERTOWN      CLOUDY    64  64  99 W5        29.91R
MONROE         FAIR      63  59  88 NW8       29.93S
JANESVILLE     FAIR      61  61 100 NW3       29.91R
$$

WIZ051-052-058>065-066-070>072-190600-
SOUTHEAST WISCONSIN

CITY           SKY/WX    TMP DP  RH WIND       PRES   REMARKS
MILWAUKEE      FAIR      70  60  70 W6        29.89R
WAUKESHA       CLOUDY    63  59  88 W5        29.91S
MILWAUKEE/TIMM CLOUDY    64  55  72 W5        29.90S
RACINE         MOCLDY    66  60  81 W6        29.91R
KENOSHA        FAIR      63  59  87 NW6       29.89F
FOND DU LAC    MOCLDY    66  60  81 W7        29.90R
SHEBOYGAN      CLOUDY    64  62  93 N5        29.89R
WEST BEND      CLOUDY    64  61  88 W7        29.90R
JUNEAU         CLOUDY    65  61  88 NW3       29.92R
$$

LSZ147-162-190600-
LAKE SUPERIOR

STATION/POSITION TIME  TEMP    WIND        PRES    WAVE
                       AIR SEA DIR/SP/G            HT/PER
                 (UTC) (F)     (DEG/KT/KT) (MB)    (FT/S)
W MID LAKE BUOY  0450   62 60  230/ 10/ 12 1009.1F   1/ 4
DEVILS ISLAND    0500   64     250/ 16/ 19 1010.1R
PORT WING        0321   67     190/  6/ 11 1010.8S
SAXON HARBOR     0440   65     190/  7/ 10 1010.2F
$$

LMZ867-665-643>646-190600-
LAKE MICHIGAN

STATION/POSITION TIME  TEMP    WIND        PRES    WAVE
                       AIR SEA DIR/SP/G            HT/PER
                 (UTC) (F)     (DEG/KT/KT) (MB)    (FT/S)
S GREEN BAY BUOY 0500   68 70  270/  8/ 10 1011.5
N MID LAKE BUOY  0450   66 67  270/ 10/ 12 1010.8R   1/ 3
NORTHPORT PIER   0440   67     300/  8/ 11 1010.8R
KEWAUNEE LAKESHO 0442   63     310/  3/  3 1010.8R
SHEBOYGAN LAKESH 0500   67     320/  9/ 10 1011.7R
PORT WASHINGTON  0440   69     270/  5/  7 1012.5S
ATWATER BUOY     0409   69 71  270/  8/ 10 1012.1R
MILWAUKEE LAKESH 0450   69     300/  5/  7   N/A
S MID LAKE BUOY  0450   71 71  320/ 12/ 14 1011.3R   1/ 4
KENOSHA   LAKESH 0500   68     310/  7/  9 1011.9
$$

TC  - TEMPERATURE IN CELSIUS
VSB - VISIBILITY IN STATUTE MILES
WCI - WIND CHILL INDEX
HX  - HEAT INDEX





USA.gov is the U.S. government's official web portal to all federal, state and local government web resources and services.